sat.trackr.live / text

‹ back to catalog

STARLINK-5747

NORAD 55574 · 2023-020F

PAYLOAD ACTIVE UNKNOWN

§ Identity

Operator
Country
US
Launch date
2023-02-12
Launch site
AFETR
Launch vehicle
Mass (kg)
RCS (m²)

Purposes: comms

External: N2YO · Heavens-Above · Gunter

§ Orbital elements

Epoch: 2026-09-20T12:12:41.309280Z

Period
94.27 min
Inclination
43.0044°
Eccentricity
0.0001642
Mean motion
15.27579917 rev/d
Perigee alt
481.9 km
Apogee alt
484.2 km
Semi-major
6,861.2 km
B*
1.8497e-5
RAAN
348.7352°
Arg perigee
268.9159°
Mean anomaly
91.1504°
Rev number
19,866

§ Raw data

STARLINK-57471 55574U 23020F   26263.50881145  .00000247  00000+0  18497-4 0  99992 55574  43.0044 348.7352 0001642 268.9159  91.1504 15.27579917198661

JSON: /api/v1/satellites/55574 · /tle

For live sub-satellite position, see the globe view (requires WebGL).

§ Visibility from observer

Set your observer location to see the next 7 days of passes ≥ 10°. The values pass through the URL so the page stays shareable.

No JS? Fill the form by hand. The geolocation button needs JavaScript.